Menomonie, WI

4:09 PM CDT on June 27, 2017 (GMT -0500)
Menomonie

Weather History for KLUM - January, 2014

Change the Weather History Date:

Friday, January 17, 2014

  Actual Average (KEAU) Record (KEAU)
Temperature  
Mean Temperature 3 °F -  
Max Temperature 12 °F 19 °F 44 °F (1947)
Min Temperature -6 °F 1 °F -32 °F (1982)
Degree Days  
Heating Degree Days 62    
Moisture  
Dew Point -1 °F    
Average Humidity 70    
Maximum Humidity 83    
Minimum Humidity 59    
Precipitation  
Precipitation 0.00 in - - ()
Sea Level Pressure  
Sea Level Pressure 29.91 in    
Wind  
Wind Speed 11 mph (WNW)    
Max Wind Speed 16 mph    
Max Gust Speed 20 mph    
Visibility 10 miles    
Events Snow    
Averages and records for this station are not official NWS values.
T = Trace of Precipitation, MM = Missing Value Source: NWS Daily Summary

Daily Weather History Graph

Daily Weather History Graph

Search for Another Location

Airport or City:

Trip Planner

Search our weather history database for the weather conditions in past years. The results will help you decide how hot, cold, wet, or windy it might be!

Date:

Astronomy

Jan. 17, 2014 Rise Set
Actual Time 7:40 AM CST 4:55 PM CST
Civil Twilight 7:08 AM CST 5:27 PM CST
Nautical Twilight 6:31 AM CST 6:03 PM CST
Astronomical Twilight 5:56 AM CST 6:38 PM CST
Moon 6:48 PM CST (1/17) 8:02 AM CST (1/17)
Length of Visible Light 10h 19m
Length of Day
9h 14m
Full, 98% of the Moon is Illuminated
Jan 17
Full
Jan 23
Last Quarter
Jan 30
New
Feb 6
First Quarter
Feb 14
Full

Hourly Weather History & Observations

Time (CST) Temp. Windchill Dew Point Humidity Pressure Visibility Wind Dir Wind Speed Gust Speed Precip Events Conditions
12:15 AM 9.5 °F -6.6 °F 3.7 °F 77% 29.78 in 4.0 mi WNW 13.8 mph - N/A Snow Light Snow
12:35 AM 9.5 °F -6.6 °F 3.6 °F 77% 29.78 in 4.0 mi WNW 13.8 mph 18.4 mph N/A Snow Light Snow
12:55 AM 9.9 °F -6.1 °F 3.9 °F 77% 29.78 in 4.0 mi WNW 13.8 mph - N/A Snow Light Snow
1:15 AM 10.0 °F -5.2 °F 4.1 °F 77% 29.78 in 4.0 mi WNW 12.7 mph - N/A Snow Light Snow
1:35 AM 10.4 °F -4.8 °F 4.1 °F 76% 29.79 in 7.0 mi WNW 12.7 mph - N/A Snow Light Snow
1:55 AM 11.1 °F -4.5 °F 3.9 °F 73% 29.79 in 10.0 mi NW 13.8 mph - N/A   Overcast
2:15 AM 11.3 °F -4.9 °F 4.1 °F 73% 29.80 in 7.0 mi NW 15.0 mph 18.4 mph N/A Snow Light Snow
2:35 AM 11.7 °F -3.8 °F 4.5 °F 73% 29.81 in 7.0 mi NW 13.8 mph 19.6 mph N/A Snow Light Snow
2:55 AM 11.8 °F -4.2 °F 3.9 °F 71% 29.82 in 10.0 mi NW 15.0 mph 18.4 mph N/A   Overcast
3:15 AM 11.7 °F -4.4 °F 3.7 °F 71% 29.83 in 10.0 mi NW 15.0 mph - N/A   Overcast
3:35 AM 11.8 °F -4.2 °F 3.7 °F 70% 29.83 in 10.0 mi NW 15.0 mph - N/A   Overcast
3:55 AM 11.8 °F -2.3 °F 3.6 °F 69% 29.83 in 10.0 mi NW 11.5 mph 18.4 mph N/A   Overcast
4:15 AM 11.3 °F -2.9 °F 3.2 °F 70% 29.84 in 10.0 mi WNW 11.5 mph 19.6 mph N/A   Overcast
4:35 AM 10.9 °F -4.7 °F 2.8 °F 70% 29.84 in 10.0 mi WNW 13.8 mph 18.4 mph N/A   Overcast
4:55 AM 10.4 °F -5.4 °F 2.3 °F 70% 29.85 in 10.0 mi WNW 13.8 mph - N/A   Overcast
5:15 AM 10.0 °F -5.9 °F 1.9 °F 70% 29.86 in 10.0 mi NW 13.8 mph 18.4 mph N/A   Mostly Cloudy
5:35 AM 9.3 °F -6.8 °F 1.4 °F 70% 29.86 in 10.0 mi NW 13.8 mph - N/A   Mostly Cloudy
5:55 AM 8.6 °F -7.7 °F 1.0 °F 71% 29.87 in 10.0 mi NW 13.8 mph - N/A   Scattered Clouds
6:15 AM 9.3 °F -6.8 °F 1.8 °F 71% 29.87 in 10.0 mi NW 13.8 mph - N/A   Mostly Cloudy
6:35 AM 9.5 °F -7.8 °F 2.1 °F 72% 29.88 in 10.0 mi NW 16.1 mph - N/A   Overcast
6:55 AM 9.5 °F -5.9 °F 1.8 °F 71% 29.90 in 10.0 mi NW 12.7 mph - N/A   Overcast
7:15 AM 9.1 °F -5.6 °F 1.4 °F 71% 29.90 in 10.0 mi WNW 11.5 mph - N/A   Mostly Cloudy
7:35 AM 8.4 °F -5.7 °F 1.2 °F 73% 29.91 in 10.0 mi WNW 10.4 mph - N/A   Scattered Clouds
7:55 AM 8.2 °F -6.8 °F 1.0 °F 72% 29.92 in 10.0 mi WNW 11.5 mph - N/A   Clear
8:15 AM 8.1 °F -9.6 °F 0.5 °F 71% 29.93 in 10.0 mi WNW 16.1 mph - N/A   Clear
8:35 AM 8.2 °F -8.2 °F 0.3 °F 70% 29.93 in 10.0 mi WNW 13.8 mph - N/A   Clear
8:55 AM 7.7 °F -7.4 °F 0.1 °F 71% 29.94 in 10.0 mi WNW 11.5 mph 17.3 mph N/A   Clear
9:15 AM 8.6 °F -6.3 °F 0.5 °F 70% 29.94 in 10.0 mi WNW 11.5 mph - N/A   Clear
9:35 AM 9.0 °F -7.3 °F 0.5 °F 69% 29.95 in 10.0 mi NW 13.8 mph 18.4 mph N/A   Clear
9:55 AM 9.3 °F -4.6 °F 0.5 °F 67% 29.95 in 10.0 mi NW 10.4 mph - N/A   Clear
10:15 AM 9.5 °F -5.9 °F 0.5 °F 67% 29.96 in 10.0 mi NNW 12.7 mph 16.1 mph N/A   Clear
10:35 AM 10.4 °F -3.3 °F 0.7 °F 65% 29.97 in 10.0 mi WNW 10.4 mph - N/A   Clear
10:55 AM 10.9 °F 0.2 °F 0.9 °F 64% 29.97 in 10.0 mi NW 6.9 mph - N/A   Clear
11:15 AM 11.3 °F 0.7 °F 1.0 °F 63% 29.97 in 10.0 mi NW 6.9 mph - N/A   Clear
11:35 AM 11.5 °F -1.1 °F 1.0 °F 63% 29.96 in 10.0 mi WNW 9.2 mph - N/A   Clear
11:55 AM 11.7 °F -2.5 °F 1.0 °F 62% 29.96 in 10.0 mi West 11.5 mph - N/A   Clear
12:15 PM 11.8 °F -0.7 °F 1.2 °F 62% 29.95 in 10.0 mi WNW 9.2 mph - N/A   Clear
12:35 PM 12.0 °F -2.7 °F 1.2 °F 62% 29.95 in 10.0 mi WNW 12.7 mph - N/A   Clear
12:55 PM 12.2 °F -1.8 °F 1.0 °F 61% 29.95 in 10.0 mi West 11.5 mph - N/A   Clear
1:15 PM 12.7 °F -0.4 °F 1.4 °F 61% 29.95 in 10.0 mi West 10.4 mph - N/A   Clear
1:35 PM 12.6 °F 0.2 °F 1.0 °F 60% 29.95 in 10.0 mi West 9.2 mph - N/A   Clear
1:55 PM 12.6 °F 0.2 °F 0.5 °F 59% 29.95 in 10.0 mi West 9.2 mph - N/A   Clear
2:15 PM 12.7 °F 1.4 °F 0.7 °F 59% 29.95 in 10.0 mi West 8.1 mph - N/A   Clear
2:35 PM 12.6 °F -0.6 °F 0.7 °F 59% 29.95 in 10.0 mi WNW 10.4 mph - N/A   Clear
2:55 PM 12.7 °F 0.4 °F 0.7 °F 59% 29.95 in 10.0 mi West 9.2 mph - N/A   Clear
3:15 PM 12.2 °F 0.7 °F 0.1 °F 59% 29.95 in 10.0 mi West 8.1 mph - N/A   Clear
3:35 PM 11.7 °F 0.0 °F -0.2 °F 59% 29.96 in 10.0 mi WSW 8.1 mph - N/A   Clear
3:55 PM 11.1 °F -2.4 °F -0.6 °F 59% 29.96 in 10.0 mi West 10.4 mph - N/A   Clear
4:15 PM 10.4 °F -1.5 °F -0.9 °F 60% 29.97 in 10.0 mi WSW 8.1 mph - N/A   Clear
4:35 PM 9.9 °F 0.2 °F -1.3 °F 61% 29.96 in 10.0 mi West 5.8 mph - N/A   Clear
4:55 PM 8.6 °F -4.7 °F -1.7 °F 63% 29.96 in 10.0 mi West 9.2 mph - N/A   Clear
5:15 PM 8.2 °F -4.1 °F -2.0 °F 63% 29.96 in 10.0 mi West 8.1 mph - N/A   Clear
5:35 PM 7.3 °F -2.8 °F -2.2 °F 65% 29.97 in 10.0 mi West 5.8 mph - N/A   Clear
5:55 PM 6.8 °F -2.0 °F -2.6 °F 66% 29.96 in 10.0 mi West 4.6 mph - N/A   Clear
6:15 PM 6.3 °F - -2.4 °F 68% 29.96 in 10.0 mi Calm Calm - N/A   Clear
6:35 PM 2.5 °F - -5.4 °F 70% 29.97 in 10.0 mi Calm Calm - N/A   Clear
6:55 PM 2.7 °F -4.8 °F -4.0 °F 74% 29.97 in 10.0 mi SW 3.5 mph - N/A   Clear
7:15 PM 2.7 °F - -4.2 °F 73% 29.97 in 10.0 mi Calm Calm - N/A   Clear
7:35 PM 1.0 °F - -5.1 °F 75% 29.96 in 10.0 mi Calm Calm - N/A   Clear
7:55 PM -0.2 °F - -5.4 °F 79% 29.96 in 10.0 mi Calm Calm - N/A   Clear
8:15 PM -1.1 °F - -5.8 °F 81% 29.96 in 10.0 mi Calm Calm - N/A   Clear
8:35 PM -1.3 °F - -5.8 °F 81% 29.94 in 10.0 mi Calm Calm - N/A   Clear
8:55 PM -4.2 °F - -9.0 °F 80% 29.94 in 10.0 mi Calm Calm - N/A   Clear
9:15 PM -3.1 °F - -7.6 °F 81% 29.93 in 10.0 mi Calm Calm - N/A   Clear
9:35 PM -2.4 °F - -6.9 °F 81% 29.92 in 10.0 mi Calm Calm - N/A   Clear
9:55 PM -2.7 °F - -6.9 °F 82% 29.90 in 10.0 mi Calm Calm - N/A   Clear
10:15 PM -6.2 °F - -10.5 °F 82% 29.90 in 10.0 mi Calm Calm - N/A   Clear
10:35 PM -4.9 °F - -9.4 °F 81% 29.89 in 10.0 mi Calm Calm - N/A   Clear
10:55 PM -3.5 °F - -7.4 °F 83% 29.88 in 10.0 mi Calm Calm - N/A   Clear
11:15 PM -4.2 °F -12.6 °F -8.7 °F 81% 29.87 in 10.0 mi ESE 3.5 mph - N/A   Clear
11:35 PM -3.1 °F -11.4 °F -7.8 °F 80% 29.86 in 10.0 mi ENE 3.5 mph - N/A   Clear
11:55 PM -2.6 °F -10.8 °F -7.2 °F 80% 29.85 in 10.0 mi East 3.5 mph - N/A   Clear